Simultaneous Nadir Overpasses (SNOs) Predictions

Prediction of SNOs between GOES-17 and METOP-B Satellite Orbit:

Table of predicted SNOs for the next 14.0 days since TLE Epoch: 12/17/2022
Index Date Time (GOES-17) GOES-17 Lat,Lon METOP-B Lat,Lon Distance(km) Time Diff (sec)
1 12/17/2022 06:33:54 -0.00,-137.33 0.38,-135.63 193.78 80
2 12/18/2022 18:50:06 -0.01,-137.33 0.64,-140.19 325.86 80
3 12/19/2022 18:32:08 -0.01,-137.33 -0.50,-135.20 242.71 80
4 12/21/2022 06:48:28 0.01,-137.31 -0.55,-139.79 283.05 80
5 12/22/2022 06:30:29 0.01,-137.30 0.54,-134.80 284.91 80
6 12/23/2022 18:46:41 -0.00,-137.29 0.48,-139.36 236.38 80
7 12/24/2022 18:28:41 0.01,-137.27 -0.61,-134.36 331.27 80
8 12/26/2022 06:45:02 -0.02,-137.24 -0.43,-138.95 195.68 80
9 12/27/2022 06:27:03 -0.03,-137.22 0.72,-133.97 371.77 80
10 12/28/2022 18:43:15 0.03,-137.20 0.34,-138.52 150.12 80
11 12/29/2022 18:25:15 0.04,-137.18 -0.75,-133.52 417.20 80
